Location: Unspecified
(49.2170°N, 0.0000°E)
Time: 01:28:14
(UTC+00:00)

Transit 2A - Pass Details

Date: 20 June 2019
Orbit: 596 x 962 km, 66.7° (Epoch: 18 August)

Event Time Altitude Azimuth Distance (km) Brightness Sun altitude
Rises 05:03:34 0° 300° (WNW) 3,627 9.2 8.7°
Reaches altitude 10° 05:07:32 10° 323° (NW) 2,641 8.7 9.3°
Maximum altitude 05:10:50 15° 356° (N) 2,276 8.8 9.8°
Drops below altitude 10° 05:14:01 10° 29° (NNE) 2,537 9.7 10.2°
Sets 05:17:42 0° 53° (NE) 3,396 11.2 10.8°
